Regional Weather Roundup
Issued by NWS Bismarck, ND

Home | Current Version | Previous Version | Text Only | Print | Product List | Glossary On
Versions: 1 2 3 4 5 6 7 8 9 10 11 12 13 14 15 16 17 18 19 20 21 22 23 24 25 26 27 28 29 30 31 32 33 34 35 36 37 38 39 40 41 42 43 44 45 46 47 48 49 50
170
ASUS43 KBIS 291410
RWRBIS

NWR BROADCAST TEXT
NATIONAL WEATHER SERVICE BISMARCK ND
900 AM CDT FRI JUL 29 2016

NOTE: "FAIR" INDICATES FEW OR NO CLOUDS BELOW 12,000 FEET WITH NO
SIGNIFICANT WEATHER AND/OR OBSTRUCTIONS TO VISIBILITY.


CITY           SKY/WX    TMP DP  RH WIND       PRES   REMARKS
WILLISTON      SUNNY     63  56  78 CALM      30.10S
MINOT          CLOUDY    66  58  75 CALM      30.10R
MINOT AFB      MOSUNNY   64  56  76 SE2       30.09S
BISMARCK       SUNNY     69  62  78 CALM      30.10S
DICKINSON      CLOUDY    61  58  90 S5        30.11S
GARRISON         N/A     65  63  93 SE3       30.10S
HETTINGER ARPT SUNNY     65  56  72 VRB3      30.13S
JAMESTOWN      MOSUNNY   66  59  78 S3        30.10S
BEACH          CLOUDY    59  59 100 S8        30.15S
CARRINGTON     CLOUDY    64  59  82 SE5       30.13F
HAZEN          CLOUDY    63  57  82 CALM      30.13R
LINTON         PTSUNNY   70  68  94 CALM      30.11S
MANDAN         PTSUNNY   66  59  77 CALM      30.11S
OAKES            N/A    N/A N/A N/A MISG        N/A
STANLEY        FAIR      63  63 100 CALM      30.13F
WATFORD CITY     N/A    N/A N/A N/A MISG        N/A
$$

CITY           SKY/WX    TMP DP  RH WIND       PRES   REMARKS
GRAND FORKS    MOSUNNY   66  58  75 NW5       30.09S
GRAND FORKS AF SUNNY     66  58  76 N3        30.10S
DEVILS LAKE    SUNNY     66  58  75 VRB3      30.12S
FARGO          SUNNY     68  59  73 CALM      30.08S
CAVALIER       FAIR      64  59  82 NW3       30.10F
GRAFTON        FAIR      64  59  82 NW6       30.11F
GWINNER        FAIR      68  59  73 NE3       30.10S
LANGDON        FAIR      64  63  94 CALM      30.12S
ROLLA          FAIR      64  59  82 SW5       30.14R
$$

CITY           SKY/WX    TMP DP  RH WIND       PRES   REMARKS
ABERDEEN       MOSUNNY   70  60  70 CALM      30.09S
MOBRIDGE       CLOUDY    71  60  68 S3        30.06S
BUFFALO          N/A     61  59  93 S7        30.06S
RAPID CITY     SUNNY     62  58  86 CALM      30.12S
GLASGOW        CLOUDY    64  58  80 SE8       30.06S
SIDNEY         MOSUNNY   60  57  89 SE3       30.10S
WOLF POINT     PTSUNNY   63  57  81 E6        30.08F
GLENDIVE       FOG       59  59 100 SE6       30.11R VSB 1/4
MILES CITY     SUNNY     65  59  81 SE5       30.08R
BAKER          CLOUDY    61  59  93 SE8       30.13R
$$

CITY           SKY/WX    TMP DP  RH WIND       PRES   REMARKS
BILLINGS       MOSUNNY   63  52  67 SW5       30.10S
GREAT FALLS    SUNNY     63  54  72 SW9       30.13F
REGINA         PTSUNNY   59  52  77 SE8       30.06S
ESTEVAN        MOSUNNY   64  59  82 VRB2      30.10R
$$





USA.gov is the U.S. government's official web portal to all federal, state and local government web resources and services.